Weather History for Hutchinson, MN

Change the Weather History Date:

Sunday, August 25, 2013

  Actual Average Record
Temperature  
Mean Temperature 84 °F -  
Max Temperature 92 °F 79 °F 92 °F (1980)
Min Temperature 75 °F 57 °F 41 °F (2008)
Cooling Degree Days 18    
Growing Degree Days 34 (Base 50)    
Moisture  
Dew Point 74 °F    
Average Humidity 75    
Maximum Humidity 90    
Minimum Humidity 59    
Precipitation  
Precipitation 0.00 in - - ()
Sea Level Pressure  
Sea Level Pressure 29.98 in    
Wind  
Wind Speed 8 mph (SSW)    
Max Wind Speed 14 mph    
Max Gust Speed 20 mph    
Visibility 10 miles    
Events      
Averages and records for this station are not official NWS values.
T = Trace of Precipitation, MM = Missing Value Source: NWS Daily Summary

Daily Weather History Graph

Daily Weather History Graph

Search for Another Location

Airport:

Trip Planner

Search our weather history database for the weather conditions in past years. The results will help you decide how hot, cold, wet, or windy it might be!

Date:

Astronomy

Aug. 25, 2013 Rise Set
Actual Time 6:31 AM CDT 8:06 PM CDT
Civil Twilight 6:00 AM CDT 8:37 PM CDT
Nautical Twilight 5:23 AM CDT 9:14 PM CDT
Astronomical Twilight 4:43 AM CDT 9:54 PM CDT
Moon 10:21 PM CDT (8/25) 11:50 AM CDT (8/25)
Length of Visible Light 14h 36m
Length of Day
13h 34m
Waning Gibbous, 75% of the Moon is Illuminated
Aug 25
Waning Gibbous
Aug 28
Last Quarter
Sep 5
New
Sep 12
First Quarter
Sep 19
Full

Hourly Weather History & Observations

Time (CDT) Temp. Heat Index Dew Point Humidity Pressure Visibility Wind Dir Wind Speed Gust Speed Precip Events Conditions
12:13 AM 79.2 °F - 71.6 °F 78% 29.97 in 10.0 mi South 11.5 mph 16.1 mph N/A   Clear
12:33 AM 78.8 °F - 71.6 °F 78% 29.97 in 10.0 mi South 10.4 mph 17.3 mph N/A   Clear
12:54 AM 78.8 °F - 71.6 °F 78% 29.97 in 10.0 mi South 11.5 mph 18.4 mph N/A   Clear
1:14 AM 78.3 °F - 71.6 °F 80% 29.97 in 10.0 mi South 10.4 mph - N/A   Clear
1:33 AM 77.9 °F - 71.6 °F 81% 29.98 in 10.0 mi South 9.2 mph - N/A   Clear
1:54 AM 77.4 °F - 71.6 °F 82% 29.98 in 10.0 mi South 6.9 mph - N/A   Clear
2:13 AM 77.0 °F - 71.6 °F 83% 29.98 in 10.0 mi South 8.1 mph - N/A   Clear
2:33 AM 77.0 °F - 71.8 °F 84% 29.98 in 10.0 mi South 9.2 mph - N/A   Clear
2:54 AM 76.6 °F - 71.6 °F 84% 29.99 in 10.0 mi South 8.1 mph - N/A   Clear
3:13 AM 76.3 °F - 71.8 °F 86% 29.98 in 10.0 mi South 6.9 mph - N/A   Clear
3:33 AM 76.1 °F - 71.6 °F 86% 29.99 in 10.0 mi South 8.1 mph - N/A   Clear
3:54 AM 75.6 °F - 71.6 °F 87% 29.98 in 10.0 mi South 8.1 mph - N/A   Clear
4:13 AM 75.6 °F - 71.6 °F 87% 29.99 in 10.0 mi South 6.9 mph - N/A   Clear
4:34 AM 75.4 °F - 71.4 °F 87% 29.99 in 10.0 mi South 6.9 mph - N/A   Clear
4:53 AM 75.2 °F - 71.2 °F 87% 29.99 in 10.0 mi South 6.9 mph - N/A   Clear
5:13 AM 75.4 °F - 71.2 °F 87% 29.99 in 10.0 mi South 6.9 mph - N/A   Clear
5:33 AM 75.2 °F - 71.1 °F 87% 29.99 in 10.0 mi South 8.1 mph - N/A   Clear
5:54 AM 75.2 °F - 71.1 °F 87% 29.99 in 10.0 mi South 8.1 mph - N/A   Clear
6:13 AM 75.2 °F - 71.1 °F 87% 30.00 in 10.0 mi South 6.9 mph - N/A   Clear
6:34 AM 75.2 °F - 71.1 °F 87% 30.00 in 10.0 mi South 5.8 mph - N/A   Clear
6:53 AM 75.2 °F - 71.1 °F 87% 30.00 in 10.0 mi South 5.8 mph - N/A   Clear
7:14 AM 75.6 °F - 71.2 °F 86% 30.01 in 10.0 mi South 5.8 mph - N/A   Clear
7:33 AM 76.3 °F - 71.6 °F 85% 30.00 in 10.0 mi South 6.9 mph - N/A   Clear
7:53 AM 77.2 °F - 71.8 °F 83% 30.00 in 10.0 mi South 6.9 mph - N/A   Clear
8:14 AM 78.4 °F - 72.1 °F 81% 30.00 in 10.0 mi South 9.2 mph - N/A   Clear
8:34 AM 80.1 °F 84.1 °F 72.5 °F 78% 30.00 in 10.0 mi South 9.2 mph - N/A   Clear
8:53 AM 79.9 °F - 72.5 °F 78% 30.00 in 10.0 mi SSW 9.2 mph - N/A   Clear
9:14 AM 80.6 °F 84.9 °F 72.5 °F 76% 30.01 in 10.0 mi SSW 6.9 mph - N/A   Clear
9:33 AM 82.2 °F 87.6 °F 72.9 °F 73% 30.01 in 10.0 mi SSW 8.1 mph - N/A   Clear
9:40 AM 82.4 °F 87.9 °F 73.0 °F 73% 30.01 in 10.0 mi SSW 6.9 mph - N/A   Clear
10:05 AM 84.2 °F 90.9 °F 73.4 °F 70% 30.01 in 10.0 mi SSW 9.2 mph 16.1 mph N/A   Clear
10:25 AM 84.2 °F 90.9 °F 73.4 °F 70% 30.00 in 10.0 mi SSW 11.5 mph 17.3 mph N/A   Clear
10:45 AM 84.2 °F 90.9 °F 73.4 °F 70% 30.00 in 10.0 mi South 9.2 mph 17.3 mph N/A   Clear
11:05 AM 86.0 °F 93.4 °F 73.4 °F 66% 29.99 in 10.0 mi SSW 6.9 mph 17.3 mph N/A   Clear
11:25 AM 86.0 °F 95.1 °F 75.2 °F 70% 29.99 in 10.0 mi South 9.2 mph 18.4 mph N/A   Clear
11:45 AM 86.0 °F 93.4 °F 73.4 °F 66% 29.99 in 10.0 mi South 13.8 mph 19.6 mph N/A   Clear
12:05 PM 87.8 °F 95.6 °F 73.4 °F 62% 29.99 in 10.0 mi SSW 10.4 mph 19.6 mph N/A   Clear
12:25 PM 87.8 °F 97.6 °F 75.2 °F 66% 29.98 in 10.0 mi SSW 10.4 mph 18.4 mph N/A   Clear
12:45 PM 89.6 °F 99.8 °F 75.2 °F 62% 29.98 in 10.0 mi SSW 11.5 mph 17.3 mph N/A   Clear
1:05 PM 89.6 °F 99.8 °F 75.2 °F 62% 29.98 in 10.0 mi South 10.4 mph 19.6 mph N/A   Clear
1:27 PM 90.1 °F 101.2 °F 75.6 °F 62% 29.97 in 10.0 mi SW 10.4 mph 19.6 mph N/A   Clear
1:34 PM 90.5 °F 101.5 °F 75.6 °F 61% 29.97 in 10.0 mi SSW 9.2 mph 19.6 mph N/A   Clear
1:54 PM 91.0 °F 102.2 °F 75.2 °F 60% 29.97 in 10.0 mi SSW 10.4 mph 19.6 mph N/A   Clear
2:14 PM 91.0 °F 102.9 °F 75.9 °F 61% 29.96 in 10.0 mi SSW 9.2 mph 17.3 mph N/A   Clear
2:33 PM 91.4 °F 102.5 °F 75.2 °F 59% 29.97 in 10.0 mi SW 9.2 mph 19.6 mph N/A   Clear
2:53 PM 91.9 °F 104.5 °F 76.1 °F 60% 29.96 in 10.0 mi SSW 11.5 mph 16.1 mph N/A   Clear
3:13 PM 91.6 °F 102.9 °F 75.4 °F 59% 29.96 in 10.0 mi South 9.2 mph 19.6 mph N/A   Clear
3:34 PM 92.3 °F 105.5 °F 76.5 °F 60% 29.95 in 10.0 mi SSW 6.9 mph - N/A   Clear
3:53 PM 92.1 °F 105.7 °F 77.0 °F 61% 29.95 in 10.0 mi SSW 9.2 mph - N/A   Clear
4:14 PM 92.1 °F 105.7 °F 76.8 °F 61% 29.95 in 10.0 mi SSW 9.2 mph 17.3 mph N/A   Clear
4:33 PM 91.8 °F 104.7 °F 76.8 °F 61% 29.95 in 10.0 mi SSW 9.2 mph - N/A   Clear
4:54 PM 91.6 °F 104.3 °F 76.3 °F 61% 29.95 in 10.0 mi SSW 9.2 mph 16.1 mph N/A   Clear
5:14 PM 91.4 °F 103.1 °F 75.9 °F 60% 29.95 in 10.0 mi SSW 9.2 mph 17.3 mph N/A   Clear
5:33 PM 91.0 °F 103.5 °F 76.5 °F 62% 29.95 in 10.0 mi SSW 8.1 mph - N/A   Clear
5:54 PM 90.7 °F 103.2 °F 76.5 °F 63% 29.95 in 10.0 mi SSW 6.9 mph - N/A   Clear
6:13 PM 90.1 °F 103.0 °F 77.0 °F 65% 29.96 in 10.0 mi SSW 11.5 mph 17.3 mph N/A   Clear
6:33 PM 89.8 °F 101.5 °F 76.1 °F 64% 29.95 in 10.0 mi SSW 8.1 mph - N/A   Clear
6:53 PM 89.1 °F 100.8 °F 76.5 °F 66% 29.96 in 10.0 mi South 6.9 mph - N/A   Clear
7:13 PM 88.0 °F 99.6 °F 76.8 °F 69% 29.95 in 10.0 mi South 6.9 mph - N/A   Clear
7:33 PM 87.3 °F 98.2 °F 76.3 °F 70% 29.95 in 10.0 mi South 6.9 mph - N/A   Clear
7:54 PM 86.0 °F 96.0 °F 76.1 °F 72% 29.95 in 10.0 mi SSW 5.8 mph - N/A   Clear
8:13 PM 85.1 °F 94.9 °F 76.3 °F 75% 29.96 in 10.0 mi SSW 5.8 mph - N/A   Clear
8:33 PM 84.2 °F 93.4 °F 76.1 °F 77% 29.97 in 10.0 mi SSW 3.5 mph - N/A   Clear
8:53 PM 82.8 °F 90.7 °F 75.9 °F 80% 29.97 in 10.0 mi South 4.6 mph - N/A   Clear
9:13 PM 82.0 °F 89.1 °F 75.7 °F 81% 29.98 in 10.0 mi South 4.6 mph - N/A   Clear
9:34 PM 82.4 °F 89.8 °F 75.6 °F 80% 29.99 in 10.0 mi South 4.6 mph - N/A   Clear
9:54 PM 81.1 °F 87.2 °F 75.2 °F 82% 29.99 in 10.0 mi South 4.6 mph - N/A   Clear
10:14 PM 79.9 °F - 75.2 °F 86% 29.99 in 10.0 mi South 4.6 mph - N/A   Clear
10:34 PM 79.7 °F - 75.2 °F 86% 29.99 in 10.0 mi Calm Calm - N/A   Clear
10:53 PM 78.8 °F - 74.8 °F 88% 30.00 in 10.0 mi South 3.5 mph - N/A   Clear
11:13 PM 78.6 °F - 74.7 °F 88% 30.00 in 10.0 mi South 3.5 mph - N/A   Clear
11:33 PM 77.5 °F - 74.3 °F 90% 29.99 in 10.0 mi Calm Calm - N/A   Clear
11:54 PM 77.4 °F - 74.3 °F 90% 29.99 in 10.0 mi Calm Calm - N/A   Clear